SCP
0 0 0 0 0 0 0 0 0 0 0 0 0 0 0 0 0 0 0 0 0 0 0 0 0 0 0 0 0 0 0 0 0 0 0 0 0 0 0 0 0 0 0 0
0 0 0 0 0 0 0 0 0 0 0 0 0 0 0 0 0 0 0 0 0 0 0 0 0 0 0 0 0 0 0 0 0 0 0 0 0 0 0 0 0 0 0 0
0 0 0 0 0 0 0 0 0 0 0 0 0 0 -0 0 0 0 0 0 0 0 0 0 0 0 0 0 0 0 0 0 0 0 0 0 0 0 0 0 0 0 0 0
0 0 0 0 0 0 0 0 0 0 0 0 0 0 -0 0 0 0 0 0 0 0 0 0 0 0 0 0 0 0 0 0 0 0 0 0 0 0 0 0 0 0 0 0
0 0 0 0 0 0 0 0 0 0 0 0 0 0 0 0 0 0 0 0 0 0 0 0 0 0 0 0 0 0 0 0 0 -0 0 0 0 0 0 0 0 0 0 0
0 0 0 0 0 0 0 0 0 0 0 0 0 0 0 0 0 0 0 0 0 0 0 0 0 0 0 0 0 0 0 0 0 0 0 0 0 0 0 0 0 0 0 0
0 0 0 0 0 0 0 0 0 0 0 0 0 0 0 0 0 0 0 0 0 0 0 0 0 0 0 0 0 0 0 0 0 0 0 0 0 0 0 0 0 0 0 0
0 0 0 0 0 0 0 0 0 0 0 0 0 0 0 0 0 0 0 0 0 0 0 0 0 0 0 0 0 0 0 0 0 0 0 0 0 0 0 0 0 0 0 0
0 0 0 0 0 0 0 0 0 0 0 0 0 0 0 0 0 0 0 0 0 0 0 0 0 0 0 0 0 0 0 0 0 0 0 0 0 0 0 0 0 0 0 0
0 0 0 0 0 0 0 0 0 0 0 0 0 0 0 0 0 0 0 0 0 0 0 0 0 0 0 0 0 0 0 0 0 0 0 0 0 0 0 0 0 0 0 0
0 0 0 0 0 0 0 0 0 0 0 0 0 0 0 0 0 0 0 0 0 0 0 0 0 0 0 0 0 0 0 0 0 0 0 0 0 0 0 0 0 0 0 0
0 0 0 0 0 0 0 0 0 0 0 0 0 0 0 0 -0 -0 0 0 0 0 0 0 0 0 0 0 0 0 0 0 0 0 0 0 0 0 0 0 0 0 0 0
0 0 0 0 0 0 0 0 0 0 0 0 0 0 0 0 -0 -0 0 0 0 0 0 0 0 0 0 0 0 0 0 0 0 0 0 0 0 0 0 0 0 0 0 0
0 0 0 0 0 0 0 0 0 0 0 0 0 0 0 0 -0 0 0 0 0 0 0 0 0 0 0 0 0 0 0 0 0 0 0 0 0 0 0 0 0 0 0 0
0 0 0 0 0 0 0 0 0 0 0 0 0 0 0 0 0 0 0 0 0 0 0 0 0 0 0 0 0 0 0 0 0 0 0 0 0 0 0 0 0 0 0 0
0 0 0 0 0 0 0 0 0 0 0 0 0 0 0 0 0 0 0 0 0 0 0 0 0 -0 -0 -0 0 0 0 0 0 0 0 0 0 0 0 0 0 0 0 0
0 0 0 0 0 0 0 0 0 0 0 0 0 0 0 0 0 0 0 0 0 0 0 0 -0 -0 -0 -0 0 0 0 0 0 0 0 0 0 0 0 0 0 0 0 0
0 0 0 0 0 0 0 0 0 0 0 0 0 0 0 0 0 0 0 0 0 0 0 0 -0 -0 -0 -0 -0 0 0 0 0 0 0 0 0 0 0 0 0 0 0 0
0 0 0 0 0 0 0 0 0 0 0 0 0 0 0 0 0 0 0 0 0 0 0 0 0 0 0 0 -0 0 0 0 0 0 0 0 0 0 0 0 0 0 0 0
0 0 0 0 0 0 0 0 0 0 0 0 0 0 0 0 0 0 0 0 0 0 0 0 0 0 0 0 0 0 0 0 0 0 0 0 0 0 0 0 0 0 0 0
0 0 0 0 0 0 0 0 0 0 0 0 0 0 0 0 0 0 0 0 0 0 0 0 0 0 0 0 0 -0 -0 0 0 0 0 0 0 0 0 0 0 0 0 0
0 0 0 0 0 0 0 0 0 0 0 0 0 0 0 0 0 0 0 0 0 0 0 0 0 0 0 0 0 0 -0 0 0 0 0 0 0 0 0 0 0 0 0 0
0 0 0 0 0 0 0 0 0 0 0 0 0 0 0 0 0 0 0 0 0 0 0 0 0 0 0 0 0 0 0 0 0 0 0 0 0 0 0 0 0 0 0 0
0 0 0 0 0 0 0 0 0 0 0 0 0 0 -0 0 0 0 0 0 0 0 0 0 0 0 0 0 0 0 0 0 0 0 0 0 0 0 0 0 0 0 0 0
0 0 0 0 0 0 0 0 0 0 0 0 0 0 -0 -0 0 0 0 0 0 0 0 0 0 0 0 0 0 0 0 0 0 0 0 0 0 0 0 0 0 0 0 0
0 0 0 0 0 0 0 0 0 0 0 0 0 0 -0 -0 0 0 0 0 0 0 0 0 0 0 0 0 0 0 0 0 0 0 0 0 0 0 0 0 0 0 0 0
Wind_Speed
2 3 7 8 7 3 4 4 4 4 2 3 5 8 8 4 3 5 5 5 6 7 6 4 5 6 6 6 7 7 7 7 6 4 3 3 2 1 1 1 1 2 2 2
2 6 6 4 4 3 3 3 3 1 1 2 4 8 7 5 6 7 7 7 7 5 3 4 5 6 8 8 8 8 8 8 7 5 3 2 2 1 1 1 1 1 2 2
6 3 4 5 4 5 4 6 4 2 2 1 1 5 5 4 3 3 4 5 5 6 6 5 6 7 8 9 10 9 9 8 7 5 4 3 3 2 1 1 0 0 1 1
3 2 4 5 5 5 5 4 4 3 2 2 1 4 6 4 3 4 4 3 4 4 4 5 6 7 8 9 8 8 8 8 7 7 6 6 4 3 3 2 1 1 1 1
4 2 5 6 5 5 3 1 2 3 3 1 1 3 8 2 4 5 4 3 3 4 4 5 6 7 7 7 7 7 8 7 7 7 7 7 4 3 2 2 2 1 0 1
1 1 2 3 1 4 4 4 3 2 3 4 5 5 7 3 5 4 4 3 3 3 2 2 2 3 3 4 6 7 8 7 7 7 7 7 6 5 4 3 2 1 0 0
1 1 0 2 3 1 3 5 2 1 1 6 3 4 7 4 3 3 4 4 3 2 2 1 1 2 3 5 7 7 8 7 7 7 7 7 7 6 6 5 4 3 1 1
2 3 2 1 4 4 4 6 6 5 5 3 1 6 6 3 2 2 2 1 1 0 1 2 2 3 3 5 6 7 8 7 7 7 6 5 5 4 4 4 4 4 3 2
3 3 2 1 1 5 4 3 3 4 2 1 4 5 6 3 4 4 4 3 1 1 1 1 1 1 2 4 5 7 7 7 7 7 6 5 5 5 4 4 3 3 2 2
3 2 2 1 2 2 3 5 3 3 4 3 4 4 4 3 4 4 3 3 3 2 1 0 1 1 1 2 3 4 5 7 6 6 6 5 5 5 4 4 4 3 3 2
1 2 1 0 2 4 3 3 3 3 3 4 3 5 2 2 2 2 2 2 2 1 1 1 1 1 2 2 2 3 3 4 5 5 5 4 4 3 4 4 4 3 3 2
1 3 1 3 2 1 2 4 5 4 3 2 2 5 2 1 1 1 2 2 2 2 2 1 2 2 3 2 2 2 3 3 4 4 4 4 3 3 3 3 3 2 3 2
1 3 2 2 2 1 1 2 3 3 3 3 4 5 3 3 3 3 2 2 2 2 3 3 3 2 2 2 2 1 1 3 3 4 4 3 3 3 3 3 2 2 2 2
2 2 4 7 5 3 3 3 3 4 3 4 6 4 4 3 3 4 3 2 2 2 2 3 2 2 2 2 1 1 1 2 3 4 4 4 3 3 3 2 2 2 2 2
3 1 1 3 3 2 3 4 4 5 6 6 6 5 6 4 3 2 2 2 2 2 2 2 1 1 2 2 2 1 1 2 3 3 4 3 3 2 2 2 2 1 1 1
2 1 1 2 2 1 2 3 4 5 4 5 4 6 4 3 1 1 1 1 0 1 2 2 2 1 1 1 1 1 1 1 2 3 2 2 2 2 2 2 2 1 1 0
1 2 0 2 3 1 3 5 5 4 3 5 7 7 2 2 2 3 2 2 2 1 1 1 1 1 1 1 1 1 1 1 2 2 2 2 2 2 2 2 2 1 1 0
2 2 1 0 2 3 4 1 2 3 3 2 2 2 2 3 3 2 2 2 2 1 1 2 1 2 1 1 1 1 1 1 2 2 2 2 2 2 1 1 1 0 0 0
2 3 2 1 1 5 4 2 0 3 3 2 3 3 3 2 3 3 2 1 2 2 1 1 1 1 1 1 1 1 1 1 2 2 1 1 2 2 1 1 1 0 0 0
3 3 3 2 1 4 4 3 2 1 3 2 1 2 2 1 1 4 3 2 2 2 1 1 1 1 1 1 1 2 1 1 1 1 1 1 2 2 1 1 0 0 0 0
2 2 2 2 2 6 4 4 1 2 4 3 1 1 1 2 3 2 2 2 2 2 1 1 1 1 1 1 2 2 1 0 0 1 2 2 1 1 1 1 1 1 1 1
2 2 2 2 2 6 3 2 1 3 4 3 2 2 1 2 2 1 1 2 2 2 2 1 1 1 2 1 2 2 1 1 1 2 2 2 2 1 1 2 1 1 1 1
2 3 3 4 5 3 2 2 3 3 3 3 3 2 1 1 2 1 2 2 2 2 2 2 2 2 2 2 2 2 1 1 2 3 2 2 2 2 1 1 1 1 1 0
3 1 2 3 5 4 3 3 4 4 3 4 3 2 2 1 1 1 1 1 2 2 2 2 2 2 2 2 2 1 1 2 3 2 2 2 2 2 2 1 1 1 0 0
4 2 1 3 5 5 3 4 4 4 3 3 3 3 2 1 1 1 1 2 2 2 2 2 2 2 2 2 2 2 2 2 3 2 2 2 2 1 2 2 1 1 0 1
2 2 2 4 4 3 4 4 4 3 3 3 2 3 3 2 1 1 1 1 1 2 2 2 2 2 2 2 2 2 2 2 3 2 2 1 1 1 2 2 2 4 3 3
Wind_Direction
151 153 203 203 198 193 172 179 216 232 222 190 228 254 266 253 227 234 236 228 225 230 234 206 188 174 162 160 161 164 156 154 147 142 143 139 147 145 131 138 132 126 120 116
109 222 215 174 174 171 168 186 209 273 282 207 243 263 266 241 225 223 223 225 226 228 225 204 183 175 175 174 172 169 167 166 168 164 153 140 134 141 153 152 131 131 129 132
184 223 162 155 174 179 207 193 193 206 345 343 301 288 261 255 234 239 234 230 225 216 212 205 192 187 181 181 180 178 177 172 168 152 128 107 87 77 90 115 155 181 147 142
215 235 160 170 195 175 221 208 187 187 148 272 169 266 273 260 267 255 253 247 240 234 217 204 196 190 192 193 182 176 174 170 165 155 155 155 162 172 189 172 171 175 157 155
219 188 166 189 203 174 191 167 181 188 167 250 213 218 278 298 262 263 260 256 253 238 216 208 202 198 197 187 176 172 167 169 166 165 166 163 164 163 144 139 143 149 175 189
231 200 167 181 165 155 138 78 54 69 108 237 215 189 270 242 235 261 260 260 254 246 232 223 204 176 181 175 169 166 166 171 169 168 170 171 169 160 154 162 168 179 206 243
339 317 347 102 96 108 127 114 87 38 216 242 188 194 248 257 247 240 247 249 244 227 201 189 174 178 180 176 172 169 169 173 172 171 175 179 175 170 174 177 179 181 193 229
147 250 223 161 159 177 193 156 166 187 204 254 201 225 251 276 296 298 295 276 299 309 223 205 199 190 186 180 174 170 172 173 173 175 178 177 173 173 179 180 182 190 200 214
164 254 314 310 159 143 155 184 150 124 129 202 246 277 298 335 350 354 1 16 342 286 257 221 196 174 171 169 174 174 171 170 175 176 173 175 176 178 182 178 178 192 202 207
149 205 292 326 67 28 145 144 116 134 164 223 258 252 258 307 315 339 353 345 323 321 328 23 136 145 147 155 162 161 169 174 173 172 175 179 183 183 177 169 182 193 199 196
92 146 301 16 186 177 125 137 136 143 169 172 227 260 232 246 269 287 297 308 313 322 352 30 44 55 71 76 123 144 152 158 162 169 171 169 177 173 166 176 189 192 191 184
71 128 186 256 276 224 158 161 146 161 216 196 194 263 337 304 305 317 315 334 1 19 32 42 58 57 58 62 78 133 150 158 167 166 161 163 159 156 165 179 189 185 189 189
140 113 99 346 329 349 161 173 168 139 134 172 189 256 349 15 16 5 8 13 15 39 44 41 46 49 51 54 54 83 145 158 150 150 149 148 153 161 175 183 185 184 187 186
84 113 182 204 225 197 223 222 195 158 183 208 223 249 305 328 349 352 3 14 25 43 51 50 41 29 25 31 44 60 115 141 138 140 145 155 171 177 178 174 173 183 183 183
87 135 257 276 269 222 224 221 206 202 206 205 228 231 253 268 287 311 340 6 35 29 26 34 31 16 16 16 17 31 73 121 136 138 150 169 168 159 150 150 156 159 174 198
72 136 319 314 292 251 244 232 219 226 220 230 245 260 259 273 306 321 311 316 290 343 350 360 2 11 13 9 9 19 38 116 132 140 150 150 143 144 149 154 147 146 161 185
95 127 43 294 318 28 256 230 207 220 224 201 222 243 252 270 261 245 252 249 231 243 281 307 317 305 297 306 357 353 336 106 124 130 130 134 143 150 159 151 136 153 181 166
162 134 134 291 30 237 251 280 200 202 244 223 245 280 264 256 278 280 245 227 228 244 262 282 290 311 323 344 3 11 30 97 123 124 125 133 134 137 138 135 146 159 161 171
181 150 124 129 242 278 297 332 152 198 258 262 248 284 315 332 345 315 308 287 251 263 266 267 286 289 328 349 20 66 40 85 116 130 134 134 136 134 130 148 164 134 114 347
64 92 116 128 186 249 271 310 311 105 284 297 255 266 296 32 283 277 330 353 3 10 358 345 353 8 15 358 70 94 72 89 142 155 140 130 130 134 144 174 180 87 129 281
33 42 134 169 228 266 283 310 38 154 262 313 288 264 232 239 242 279 339 3 17 9 359 12 47 32 353 38 91 89 68 48 7 96 100 91 96 118 132 97 70 91 74 51
195 186 203 168 210 258 326 23 167 257 310 326 324 315 302 315 334 5 49 46 29 11 7 32 65 33 12 47 95 79 38 22 66 85 87 79 74 75 80 90 60 67 91 76
215 208 204 204 227 273 312 288 303 324 322 324 333 336 18 2 344 22 42 36 30 16 4 28 70 50 21 25 71 86 21 61 83 85 81 73 64 58 68 101 98 60 64 71
287 288 216 263 278 296 308 317 334 338 328 331 341 352 8 6 359 11 23 28 34 19 17 36 57 61 28 19 39 63 52 73 89 90 86 79 75 60 47 48 81 91 61 21
268 278 261 268 292 316 316 324 326 338 353 3 9 11 17 58 19 24 28 11 7 7 18 37 45 46 29 28 41 42 58 89 90 89 90 76 68 77 59 39 31 11 313 241
256 229 233 257 272 267 284 315 332 342 345 351 11 12 8 22 34 42 31 12 18 21 30 39 40 40 25 30 35 26 40 92 101 87 80 75 71 62 60 50 26 21 18 13